Time,TemperatureF,DewpointF,PressureIn,WindDirection,WindDirectionDegrees,WindSpeedMPH,WindSpeedGustMPH,Humidity,HourlyPrecipIn,Conditions,Clouds,dailyrainin,SoftwareType,DateUTC
2013-07-08 00:01:00,65.0,55.8,29.59,SSE,158,1.5,2.5,72,0.00,,,0.00,WUHU216HW,2013-07-08 07:01:00,
2013-07-08 00:06:00,64.8,55.6,29.59,SSW,203,1.6,2.5,72,0.00,,,0.00,WUHU216HW,2013-07-08 07:06:00,
2013-07-08 00:11:00,64.6,55.5,29.59,SSE,158,0.7,1.8,72,0.00,,,0.00,WUHU216HW,2013-07-08 07:11:00,
2013-07-08 00:16:00,64.3,55.8,29.59,SSE,158,2.5,2.9,74,0.00,,,0.00,WUHU216HW,2013-07-08 07:16:00,
2013-07-08 00:21:00,63.9,55.4,29.60,SSE,148,2.0,3.1,74,0.00,,,0.00,WUHU216HW,2013-07-08 07:21:00,
2013-07-08 00:26:00,63.7,55.6,29.60,SSW,194,2.9,3.4,75,0.00,,,0.00,WUHU216HW,2013-07-08 07:26:00,
2013-07-08 00:31:00,63.4,55.3,29.60,SSW,203,1.6,4.7,75,0.00,,,0.00,WUHU216HW,2013-07-08 07:31:00,
2013-07-08 00:36:00,63.0,55.3,29.60,South,175,2.0,4.7,76,0.00,,,0.00,WUHU216HW,2013-07-08 07:36:00,
2013-07-08 00:41:00,62.8,55.1,29.60,SSE,158,2.9,4.7,76,0.00,,,0.00,WUHU216HW,2013-07-08 07:41:00,
2013-07-08 00:46:00,62.6,54.5,29.60,SSE,158,1.3,4.7,75,0.00,,,0.00,WUHU216HW,2013-07-08 07:46:00,
2013-07-08 00:51:00,62.3,54.5,29.60,SW,225,1.6,4.7,76,0.00,,,0.00,WUHU216HW,2013-07-08 07:51:00,
2013-07-08 00:56:00,62.1,54.5,29.60,SSW,203,1.6,2.9,76,0.00,,,0.00,WUHU216HW,2013-07-08 07:56:00,
2013-07-08 01:01:00,61.7,54.5,29.60,SSW,203,1.9,2.0,77,0.00,,,0.00,WUHU216HW,2013-07-08 08:01:00,
2013-07-08 01:06:00,61.7,54.5,29.60,South,179,0.7,2.2,77,0.00,,,0.00,WUHU216HW,2013-07-08 08:06:00,
2013-07-08 01:11:00,61.6,54.6,29.60,SSE,158,1.1,2.2,78,0.00,,,0.00,WUHU216HW,2013-07-08 08:11:00,
2013-07-08 01:16:00,61.2,54.4,29.60,SSW,201,2.6,2.7,78,0.00,,,0.00,WUHU216HW,2013-07-08 08:16:00,
2013-07-08 01:21:00,61.0,54.2,29.60,SSE,158,0.7,2.7,78,0.00,,,0.00,WUHU216HW,2013-07-08 08:21:00,
2013-07-08 01:26:00,60.8,54.0,29.60,South,180,2.5,3.6,78,0.00,,,0.00,WUHU216HW,2013-07-08 08:26:00,
2013-07-08 01:31:00,60.5,54.0,29.60,SSE,158,4.5,4.5,79,0.00,,,0.00,WUHU216HW,2013-07-08 08:31:00,
2013-07-08 01:36:00,60.1,53.6,29.60,SSE,158,3.4,4.5,79,0.00,,,0.00,WUHU216HW,2013-07-08 08:36:00,
2013-07-08 01:41:00,59.9,53.5,29.60,SE,135,2.2,3.8,79,0.00,,,0.00,WUHU216HW,2013-07-08 08:41:00,
2013-07-08 01:46:00,59.8,53.6,29.60,South,180,3.1,3.8,80,0.00,,,0.00,WUHU216HW,2013-07-08 08:46:00,
2013-07-08 01:51:00,59.6,53.5,29.61,SE,141,2.3,3.6,80,0.00,,,0.00,WUHU216HW,2013-07-08 08:51:00,
2013-07-08 01:56:00,59.4,53.3,29.61,SSE,158,2.5,4.0,80,0.00,,,0.00,WUHU216HW,2013-07-08 08:56:00,
2013-07-08 02:01:00,59.2,53.1,29.61,SSE,158,2.0,4.5,80,0.00,,,0.00,WUHU216HW,2013-07-08 09:01:00,
2013-07-08 02:06:00,59.2,53.1,29.62,SSE,158,2.2,4.5,80,0.00,,,0.00,WUHU216HW,2013-07-08 09:06:00,
2013-07-08 02:11:00,59.0,52.9,29.62,South,180,4.0,4.3,80,0.00,,,0.00,WUHU216HW,2013-07-08 09:11:00,
2013-07-08 02:16:00,58.9,52.7,29.62,SE,135,1.8,4.3,80,0.00,,,0.00,WUHU216HW,2013-07-08 09:16:00,
2013-07-08 02:21:00,58.7,52.9,29.62,SSW,203,2.9,4.3,81,0.00,,,0.00,WUHU216HW,2013-07-08 09:21:00,
2013-07-08 02:26:00,58.7,52.9,29.62,SSE,158,3.1,3.1,81,0.00,,,0.00,WUHU216HW,2013-07-08 09:26:00,
2013-07-08 02:31:00,58.3,52.6,29.62,SSE,167,2.7,4.3,81,0.00,,,0.00,WUHU216HW,2013-07-08 09:31:00,
2013-07-08 02:36:00,58.3,52.6,29.62,South,178,2.4,4.3,81,0.00,,,0.00,WUHU216HW,2013-07-08 09:36:00,
2013-07-08 02:41:00,58.3,52.8,29.63,South,188,2.8,4.3,82,0.00,,,0.00,WUHU216HW,2013-07-08 09:41:00,
2013-07-08 02:46:00,58.1,52.4,29.63,SSE,159,1.3,4.3,81,0.00,,,0.00,WUHU216HW,2013-07-08 09:46:00,
2013-07-08 02:51:00,58.1,52.7,29.62,SSW,203,3.4,3.4,82,0.00,,,0.00,WUHU216HW,2013-07-08 09:51:00,
2013-07-08 02:56:00,58.1,52.7,29.63,SSW,193,2.2,3.4,82,0.00,,,0.00,WUHU216HW,2013-07-08 09:56:00,
2013-07-08 03:01:00,58.0,52.5,29.63,South,176,1.1,3.4,82,0.00,,,0.00,WUHU216HW,2013-07-08 10:01:00,
2013-07-08 03:06:00,58.0,52.8,29.62,South,180,2.2,3.4,83,0.00,,,0.00,WUHU216HW,2013-07-08 10:06:00,
2013-07-08 03:11:00,58.0,52.5,29.62,South,180,3.1,4.3,82,0.00,,,0.00,WUHU216HW,2013-07-08 10:11:00,
2013-07-08 03:16:00,58.0,52.8,29.63,South,184,2.9,4.7,83,0.00,,,0.00,WUHU216HW,2013-07-08 10:16:00,
2013-07-08 03:21:00,57.8,52.3,29.63,South,171,1.4,4.7,82,0.00,,,0.00,WUHU216HW,2013-07-08 10:21:00,
2013-07-08 03:26:00,58.0,52.8,29.63,SSE,158,5.8,5.8,83,0.00,,,0.00,WUHU216HW,2013-07-08 10:26:00,
2013-07-08 03:31:00,58.0,52.8,29.63,South,180,3.1,5.8,83,0.00,,,0.00,WUHU216HW,2013-07-08 10:31:00,
2013-07-08 03:36:00,58.0,52.8,29.63,SSE,158,1.3,5.8,83,0.00,,,0.00,WUHU216HW,2013-07-08 10:36:00,
2013-07-08 03:41:00,58.0,52.5,29.63,SE,135,2.9,3.1,82,0.00,,,0.00,WUHU216HW,2013-07-08 10:41:00,
2013-07-08 03:46:00,58.0,52.5,29.63,South,180,4.5,4.5,82,0.00,,,0.00,WUHU216HW,2013-07-08 10:46:00,
2013-07-08 03:51:00,58.0,52.5,29.63,SE,135,2.5,4.5,82,0.00,,,0.00,WUHU216HW,2013-07-08 10:51:00,
2013-07-08 03:56:00,58.0,52.5,29.64,SSE,158,2.5,3.4,82,0.00,,,0.00,WUHU216HW,2013-07-08 10:56:00,
2013-07-08 04:01:00,58.0,52.5,29.64,SSE,158,1.6,3.8,82,0.00,,,0.00,WUHU216HW,2013-07-08 11:01:00,
2013-07-08 04:06:00,58.0,52.2,29.64,SSE,158,2.7,3.8,81,0.00,,,0.00,WUHU216HW,2013-07-08 11:06:00,
2013-07-08 04:11:00,58.0,52.5,29.65,South,180,0.9,4.0,82,0.00,,,0.00,WUHU216HW,2013-07-08 11:11:00,
2013-07-08 04:16:00,58.0,52.5,29.64,SE,135,1.8,4.0,82,0.00,,,0.00,WUHU216HW,2013-07-08 11:16:00,
2013-07-08 04:21:00,58.0,52.5,29.64,SSE,150,3.1,3.8,82,0.00,,,0.00,WUHU216HW,2013-07-08 11:21:00,
2013-07-08 04:26:00,57.8,52.3,29.65,SSE,158,3.8,4.0,82,0.00,,,0.00,WUHU216HW,2013-07-08 11:26:00,
2013-07-08 04:31:00,57.8,52.3,29.65,South,180,3.4,4.0,82,0.00,,,0.00,WUHU216HW,2013-07-08 11:31:00,
2013-07-08 04:36:00,57.6,52.1,29.65,South,182,1.3,4.0,82,0.00,,,0.00,WUHU216HW,2013-07-08 11:36:00,
2013-07-08 04:41:00,57.6,52.1,29.65,South,183,1.7,3.4,82,0.00,,,0.00,WUHU216HW,2013-07-08 11:41:00,
2013-07-08 04:46:00,57.4,51.9,29.65,SSE,158,2.5,3.4,82,0.00,,,0.00,WUHU216HW,2013-07-08 11:46:00,
2013-07-08 04:51:00,57.4,51.9,29.65,SSE,148,2.2,2.7,82,0.00,,,0.00,WUHU216HW,2013-07-08 11:51:00,
2013-07-08 04:56:00,57.2,51.8,29.65,SSE,158,1.6,2.9,82,0.00,,,0.00,WUHU216HW,2013-07-08 11:56:00,
2013-07-08 05:01:00,57.4,51.9,29.66,SSE,166,1.9,2.9,82,0.00,,,0.00,WUHU216HW,2013-07-08 12:01:00,
2013-07-08 05:06:00,57.4,51.9,29.65,SSE,158,1.6,2.9,82,0.00,,,0.00,WUHU216HW,2013-07-08 12:06:00,
2013-07-08 05:11:00,57.4,51.9,29.66,SSE,158,2.2,2.2,82,0.00,,,0.00,WUHU216HW,2013-07-08 12:11:00,
2013-07-08 05:16:00,57.4,52.3,29.65,South,180,3.4,3.4,83,0.00,,,0.00,WUHU216HW,2013-07-08 12:16:00,
2013-07-08 05:21:00,57.4,52.3,29.65,SSE,158,1.1,3.6,83,0.00,,,0.00,WUHU216HW,2013-07-08 12:21:00,
2013-07-08 05:23:00,57.4,52.3,29.65,South,180,1.8,3.1,83,0.00,,,0.00,WUHU216HW,2013-07-08 12:23:00,
2013-07-08 05:26:00,57.4,52.3,29.65,South,180,1.8,3.8,83,0.00,,,0.00,WUHU216HW,2013-07-08 12:26:00,
2013-07-08 05:31:00,57.4,52.3,29.65,South,180,1.8,3.8,83,0.00,,,0.00,WUHU216HW,2013-07-08 12:31:00,
2013-07-08 06:00:00,57.2,52.1,29.66,SSE,158,2.0,2.0,83,0.00,,,0.00,WUHU216HW,2013-07-08 13:00:00,
2013-07-08 06:05:00,57.2,52.1,29.66,SSE,158,2.0,2.0,83,0.00,,,0.00,WUHU216HW,2013-07-08 13:05:00,
2013-07-08 07:00:00,58.0,52.5,29.68,SSE,158,1.8,1.8,82,0.00,,,0.00,WUHU216HW,2013-07-08 14:00:00,
2013-07-08 07:05:00,58.0,52.8,29.68,South,181,1.9,3.4,83,0.00,,,0.00,WUHU216HW,2013-07-08 14:05:00,
2013-07-08 07:10:00,58.0,52.8,29.69,SSW,203,1.1,3.4,83,0.00,,,0.00,WUHU216HW,2013-07-08 14:10:00,
2013-07-08 07:15:00,58.1,52.7,29.69,SSW,203,2.5,3.8,82,0.00,,,0.00,WUHU216HW,2013-07-08 14:15:00,
2013-07-08 07:20:00,58.3,52.8,29.69,SSE,158,4.5,4.5,82,0.00,,,0.00,WUHU216HW,2013-07-08 14:20:00,
2013-07-08 07:25:00,58.3,52.8,29.69,SSE,152,1.8,4.5,82,0.00,,,0.00,WUHU216HW,2013-07-08 14:25:00,
2013-07-08 07:30:00,58.3,52.8,29.69,South,175,2.5,4.5,82,0.00,,,0.00,WUHU216HW,2013-07-08 14:30:00,
2013-07-08 07:35:00,58.3,52.8,29.70,SSE,158,2.2,4.3,82,0.00,,,0.00,WUHU216HW,2013-07-08 14:35:00,
2013-07-08 07:40:00,58.5,53.0,29.70,SSE,158,1.1,4.3,82,0.00,,,0.00,WUHU216HW,2013-07-08 14:40:00,
2013-07-08 07:45:00,58.5,53.0,29.70,SSW,203,3.4,3.4,82,0.00,,,0.00,WUHU216HW,2013-07-08 14:45:00,
2013-07-08 07:50:00,58.5,53.0,29.70,South,189,2.2,3.6,82,0.00,,,0.00,WUHU216HW,2013-07-08 14:50:00,
2013-07-08 07:55:00,58.7,53.2,29.70,SSE,163,2.2,3.6,82,0.00,,,0.00,WUHU216HW,2013-07-08 14:55:00,
2013-07-08 08:00:00,58.7,53.2,29.70,South,169,1.6,3.4,82,0.00,,,0.00,WUHU216HW,2013-07-08 15:00:00,
2013-07-08 08:05:00,58.7,52.9,29.70,SE,135,4.0,4.0,81,0.00,,,0.00,WUHU216HW,2013-07-08 15:05:00,
2013-07-08 08:10:00,58.9,53.1,29.70,South,175,2.0,4.0,81,0.00,,,0.00,WUHU216HW,2013-07-08 15:10:00,
2013-07-08 08:13:00,58.9,53.1,29.70,SSE,158,2.7,2.7,81,0.00,,,0.00,WUHU216HW,2013-07-08 15:13:00,
2013-07-08 08:15:00,58.9,53.1,29.70,SSE,158,2.7,4.0,81,0.00,,,0.00,WUHU216HW,2013-07-08 15:15:00,
2013-07-08 08:20:00,58.9,53.1,29.70,SSE,158,2.7,3.6,81,0.00,,,0.00,WUHU216HW,2013-07-08 15:20:00,
2013-07-08 09:00:00,60.8,54.0,29.72,SSE,158,1.6,1.6,78,0.00,,,0.00,WUHU216HW,2013-07-08 16:00:00,
2013-07-08 09:05:00,60.8,54.0,29.72,SSE,158,1.6,1.6,78,0.00,,,0.00,WUHU216HW,2013-07-08 16:05:00,
2013-07-08 11:00:00,67.0,56.9,29.73,WNW,293,2.0,2.0,70,0.00,,,0.00,WUHU216HW,2013-07-08 18:00:00,
2013-07-08 11:05:00,67.3,56.8,29.73,SSW,203,3.1,3.4,69,0.00,,,0.00,WUHU216HW,2013-07-08 18:05:00,
2013-07-08 11:11:00,67.7,57.2,29.73,SSW,203,2.7,3.4,69,0.00,,,0.00,WUHU216HW,2013-07-08 18:11:00,
2013-07-08 11:16:00,68.2,56.0,29.73,SSE,158,2.8,5.4,65,0.00,,,0.00,WUHU216HW,2013-07-08 18:16:00,
2013-07-08 11:21:00,68.2,56.4,29.73,SE,135,0.0,5.4,66,0.00,,,0.00,WUHU216HW,2013-07-08 18:21:00,
2013-07-08 11:27:00,69.5,57.6,29.73,SSE,162,2.3,3.8,66,0.00,,,0.00,WUHU216HW,2013-07-08 18:27:00,
2013-07-08 11:32:00,70.0,57.2,29.73,NNW,338,2.5,3.8,64,0.00,,,0.00,WUHU216HW,2013-07-08 18:32:00,
2013-07-08 11:37:00,70.4,58.1,29.73,WNW,293,1.1,2.7,65,0.00,,,0.00,WUHU216HW,2013-07-08 18:37:00,
2013-07-08 11:43:00,70.7,58.0,29.73,South,187,1.6,6.3,64,0.00,,,0.00,WUHU216HW,2013-07-08 18:43:00,
2013-07-08 11:48:00,71.3,58.1,29.73,SW,225,0.0,0.0,63,0.00,,,0.00,WUHU216HW,2013-07-08 18:48:00,
2013-07-08 11:49:00,71.3,58.1,29.73,SSW,209,0.9,6.3,63,0.00,,,0.00,WUHU216HW,2013-07-08 18:49:00,
2013-07-08 11:54:00,71.3,58.1,29.73,SW,225,0.0,3.1,63,0.00,,,0.00,WUHU216HW,2013-07-08 18:54:00,
2013-07-08 12:00:00,71.6,58.3,29.73,SSE,158,2.7,2.7,63,0.00,,,0.00,WUHU216HW,2013-07-08 19:00:00,
2013-07-08 12:05:00,71.6,58.3,29.73,SSE,158,2.7,2.7,63,0.00,,,0.00,WUHU216HW,2013-07-08 19:05:00,
2013-07-08 13:00:00,76.3,58.4,29.73,SSW,203,1.8,1.8,54,0.00,,,0.00,WUHU216HW,2013-07-08 20:00:00,
2013-07-08 13:05:00,76.1,59.3,29.73,SSE,158,2.0,3.1,56,0.00,,,0.00,WUHU216HW,2013-07-08 20:05:00,
2013-07-08 13:10:00,76.5,59.1,29.73,WSW,248,3.1,3.1,55,0.00,,,0.00,WUHU216HW,2013-07-08 20:10:00,
2013-07-08 13:15:00,76.9,59.4,29.73,South,183,1.8,3.1,55,0.00,,,0.00,WUHU216HW,2013-07-08 20:15:00,
2013-07-08 13:20:00,77.4,59.4,29.72,West,270,1.6,3.1,54,0.00,,,0.00,WUHU216HW,2013-07-08 20:20:00,
2013-07-08 13:25:00,78.1,59.6,29.73,South,171,2.4,4.5,53,0.00,,,0.00,WUHU216HW,2013-07-08 20:25:00,
2013-07-08 13:31:00,78.3,59.2,29.72,WSW,248,3.1,4.5,52,0.00,,,0.00,WUHU216HW,2013-07-08 20:31:00,
2013-07-08 13:36:00,77.6,58.6,29.72,NNE,23,2.9,3.4,52,0.00,,,0.00,WUHU216HW,2013-07-08 20:36:00,
2013-07-08 13:41:00,76.5,59.1,29.72,North,0,0.2,4.3,55,0.00,,,0.00,WUHU216HW,2013-07-08 20:41:00,
2013-07-08 13:46:00,77.6,60.1,29.72,West,274,2.0,4.3,55,0.00,,,0.00,WUHU216HW,2013-07-08 20:46:00,
2013-07-08 13:51:00,78.3,60.3,29.72,South,170,1.6,3.4,54,0.00,,,0.00,WUHU216HW,2013-07-08 20:51:00,
2013-07-08 13:56:00,78.8,59.8,29.72,SW,232,3.2,4.5,52,0.00,,,0.00,WUHU216HW,2013-07-08 20:56:00,
2013-07-08 14:02:00,78.8,59.8,29.72,NNE,23,1.8,4.5,52,0.00,,,0.00,WUHU216HW,2013-07-08 21:02:00,
2013-07-08 14:08:00,79.2,60.0,29.72,NW,315,2.7,3.4,52,0.00,,,0.00,WUHU216HW,2013-07-08 21:08:00,
2013-07-08 14:13:00,79.6,59.9,29.72,South,178,2.0,4.5,51,0.00,,,0.00,WUHU216HW,2013-07-08 21:13:00,
2013-07-08 14:19:00,80.3,59.9,29.72,SW,219,1.9,4.5,50,0.00,,,0.00,WUHU216HW,2013-07-08 21:19:00,
2013-07-08 14:24:00,80.6,60.3,29.71,WNW,290,1.0,4.0,50,0.00,,,0.00,WUHU216HW,2013-07-08 21:24:00,
2013-07-08 14:29:00,81.0,60.7,29.71,SSW,199,0.8,3.6,50,0.00,,,0.00,WUHU216HW,2013-07-08 21:29:00,
2013-07-08 14:34:00,81.2,60.2,29.71,West,268,2.4,4.0,49,0.00,,,0.00,WUHU216HW,2013-07-08 21:34:00,
2013-07-08 14:39:00,81.4,60.3,29.71,NNE,23,1.6,4.0,49,0.00,,,0.00,WUHU216HW,2013-07-08 21:39:00,
2013-07-08 14:46:00,81.7,60.7,29.71,WNW,293,2.5,4.3,49,0.00,,,0.00,WUHU216HW,2013-07-08 21:46:00,
2013-07-08 14:51:00,82.4,60.1,29.71,SSE,158,2.5,4.3,47,0.00,,,0.00,WUHU216HW,2013-07-08 21:51:00,
2013-07-08 14:56:00,82.6,60.3,29.71,SW,214,2.4,3.4,47,0.00,,,0.00,WUHU216HW,2013-07-08 21:56:00,
2013-07-08 15:01:00,82.6,60.3,29.71,SSE,158,1.6,3.4,47,0.00,,,0.00,WUHU216HW,2013-07-08 22:01:00,
2013-07-08 15:06:00,82.8,60.4,29.71,SSW,203,1.8,3.6,47,0.00,,,0.00,WUHU216HW,2013-07-08 22:06:00,
2013-07-08 15:12:00,83.2,60.1,29.71,North,0,3.6,3.8,46,0.00,,,0.00,WUHU216HW,2013-07-08 22:12:00,
2013-07-08 15:17:00,82.6,60.8,29.71,North,0,1.9,4.0,48,0.00,,,0.00,WUHU216HW,2013-07-08 22:17:00,
2013-07-08 15:22:00,83.3,60.3,29.71,NNE,23,2.5,4.0,46,0.00,,,0.00,WUHU216HW,2013-07-08 22:22:00,
2013-07-08 15:27:00,83.5,60.5,29.71,SW,223,1.6,3.4,46,0.00,,,0.00,WUHU216HW,2013-07-08 22:27:00,
2013-07-08 15:32:00,83.5,60.5,29.70,West,266,1.8,4.5,46,0.00,,,0.00,WUHU216HW,2013-07-08 22:32:00,
2013-07-08 15:37:00,83.9,60.8,29.70,SSE,157,1.5,4.5,46,0.00,,,0.00,WUHU216HW,2013-07-08 22:37:00,
2013-07-08 15:43:00,83.9,60.8,29.70,WSW,255,1.3,3.4,46,0.00,,,0.00,WUHU216HW,2013-07-08 22:43:00,
2013-07-08 15:48:00,84.2,60.6,29.70,SSE,162,0.8,3.4,45,0.00,,,0.00,WUHU216HW,2013-07-08 22:48:00,
2013-07-08 15:54:00,83.5,59.2,29.70,North,359,2.8,4.3,44,0.01,,,0.01,WUHU216HW,2013-07-08 22:54:00,
2013-07-08 15:59:00,83.9,60.2,29.70,NE,53,0.8,4.0,45,0.01,,,0.01,WUHU216HW,2013-07-08 22:59:00,
2013-07-08 16:04:00,84.4,60.8,29.70,North,0,2.5,2.5,45,0.01,,,0.01,WUHU216HW,2013-07-08 23:04:00,
2013-07-08 16:09:00,84.6,59.7,29.70,NNW,329,0.9,2.5,43,0.01,,,0.01,WUHU216HW,2013-07-08 23:09:00,
2013-07-08 16:14:00,84.1,59.8,29.70,NNW,341,1.0,3.4,44,0.01,,,0.01,WUHU216HW,2013-07-08 23:14:00,
2013-07-08 16:20:00,83.3,59.1,29.70,North,1,3.8,5.8,44,0.01,,,0.01,WUHU216HW,2013-07-08 23:20:00,
2013-07-08 16:25:00,83.2,59.6,29.70,NW,315,2.5,5.8,45,0.01,,,0.01,WUHU216HW,2013-07-08 23:25:00,
2013-07-08 16:30:00,83.5,59.2,29.70,SSW,206,1.6,4.0,44,0.01,,,0.01,WUHU216HW,2013-07-08 23:30:00,
2013-07-08 16:35:00,84.1,59.8,29.70,WSW,248,2.5,4.0,44,0.01,,,0.01,WUHU216HW,2013-07-08 23:35:00,
2013-07-08 16:40:00,83.9,58.3,29.70,WNW,293,4.0,4.0,42,0.01,,,0.01,WUHU216HW,2013-07-08 23:40:00,
2013-07-08 16:46:00,83.9,58.3,29.70,WSW,248,1.8,4.0,42,0.01,,,0.01,WUHU216HW,2013-07-08 23:46:00,
2013-07-08 16:51:00,83.9,58.3,29.70,West,260,2.2,4.0,42,0.00,,,0.01,WUHU216HW,2013-07-08 23:51:00,
2013-07-08 16:56:00,83.9,57.7,29.70,WSW,248,3.4,3.4,41,0.00,,,0.01,WUHU216HW,2013-07-08 23:56:00,
2013-07-08 17:02:00,84.1,58.5,29.70,WNW,293,0.0,3.4,42,0.00,,,0.01,WUHU216HW,2013-07-09 00:02:00,
2013-07-08 17:07:00,85.0,59.3,29.70,North,0,2.2,3.1,42,0.00,,,0.01,WUHU216HW,2013-07-09 00:07:00,
2013-07-08 17:12:00,85.5,59.2,29.70,NW,315,0.0,3.1,41,0.00,,,0.01,WUHU216HW,2013-07-09 00:12:00,
2013-07-08 17:18:00,86.4,60.0,29.70,North,0,1.8,2.2,41,0.00,,,0.01,WUHU216HW,2013-07-09 00:18:00,
2013-07-08 17:23:00,86.8,58.9,29.70,North,0,3.4,3.4,39,0.00,,,0.01,WUHU216HW,2013-07-09 00:23:00,
2013-07-08 17:28:00,86.8,58.9,29.70,WNW,282,2.1,3.6,39,0.00,,,0.01,WUHU216HW,2013-07-09 00:28:00,
2013-07-08 17:34:00,85.3,57.6,29.70,NNW,330,1.7,4.7,39,0.00,,,0.01,WUHU216HW,2013-07-09 00:34:00,
2013-07-08 17:39:00,85.3,59.1,29.70,NW,322,0.7,4.7,41,0.00,,,0.01,WUHU216HW,2013-07-09 00:39:00,
2013-07-08 17:44:00,86.4,60.0,29.69,West,270,2.7,3.8,41,0.00,,,0.01,WUHU216HW,2013-07-09 00:44:00,
2013-07-08 17:49:00,87.1,60.0,29.69,NNE,27,1.9,2.7,40,0.00,,,0.01,WUHU216HW,2013-07-09 00:49:00,
2013-07-08 17:54:00,87.5,60.3,29.69,North,0,2.0,2.7,40,0.00,,,0.01,WUHU216HW,2013-07-09 00:54:00,
2013-07-08 17:59:00,87.3,60.2,29.69,North,0,1.8,2.7,40,0.00,,,0.01,WUHU216HW,2013-07-09 00:59:00,
2013-07-08 18:05:00,86.4,58.6,29.69,North,1,1.3,3.4,39,0.00,,,0.01,WUHU216HW,2013-07-09 01:05:00,
2013-07-08 18:10:00,85.1,58.2,29.69,North,0,2.0,2.5,40,0.00,,,0.01,WUHU216HW,2013-07-09 01:10:00,
2013-07-08 18:16:00,83.7,57.6,29.69,NW,306,2.1,3.4,41,0.00,,,0.01,WUHU216HW,2013-07-09 01:16:00,
2013-07-08 18:22:00,83.0,58.2,29.69,NNW,338,2.5,4.0,43,0.00,,,0.01,WUHU216HW,2013-07-09 01:22:00,
2013-07-08 18:27:00,82.6,57.2,29.69,WNW,293,0.0,3.1,42,0.00,,,0.01,WUHU216HW,2013-07-09 01:27:00,
2013-07-08 18:33:00,81.9,57.2,29.69,NNW,338,3.6,3.6,43,0.00,,,0.01,WUHU216HW,2013-07-09 01:33:00,
2013-07-08 18:38:00,81.5,57.4,29.69,North,0,0.0,0.0,44,0.00,,,0.01,WUHU216HW,2013-07-09 01:38:00,
2013-07-08 18:39:00,81.5,57.4,29.69,North,0,0.0,3.6,44,0.00,,,0.01,WUHU216HW,2013-07-09 01:39:00,
2013-07-08 18:43:00,81.5,57.4,29.69,North,0,0.0,2.2,44,0.00,,,0.01,WUHU216HW,2013-07-09 01:43:00,
2013-07-08 19:00:00,79.9,57.3,29.69,WNW,293,0.7,0.7,46,0.00,,,0.01,WUHU216HW,2013-07-09 02:00:00,
2013-07-08 19:05:00,79.9,57.3,29.69,WNW,293,0.7,0.7,46,0.00,,,0.01,WUHU216HW,2013-07-09 02:05:00,
2013-07-08 20:00:00,77.4,56.2,29.70,West,270,1.1,1.1,48,0.00,,,0.01,WUHU216HW,2013-07-09 03:00:00,
2013-07-08 20:05:00,77.4,56.2,29.70,West,270,1.1,1.1,48,0.00,,,0.01,WUHU216HW,2013-07-09 03:05:00,
2013-07-08 21:00:00,74.7,56.9,29.70,NNW,338,0.0,0.0,54,0.00,,,0.01,WUHU216HW,2013-07-09 04:00:00,
2013-07-08 21:01:00,74.7,56.9,29.70,NNW,338,0.0,0.0,54,0.00,,,0.01,WUHU216HW,2013-07-09 04:01:00,
2013-07-08 21:06:00,74.7,56.9,29.70,NNW,338,0.0,0.0,54,0.00,,,0.01,WUHU216HW,2013-07-09 04:06:00,
2013-07-08 22:00:00,71.6,56.1,29.70,WNW,293,0.0,0.0,58,0.00,,,0.01,WUHU216HW,2013-07-09 05:00:00,
2013-07-08 22:05:00,71.3,55.7,29.71,WNW,293,0.0,0.0,58,0.00,,,0.01,WUHU216HW,2013-07-09 05:05:00,
2013-07-08 22:10:00,71.3,56.3,29.71,WNW,293,0.0,0.0,59,0.00,,,0.01,WUHU216HW,2013-07-09 05:10:00,
2013-07-08 22:15:00,70.9,55.9,29.71,WNW,293,0.0,0.0,59,0.00,,,0.01,WUHU216HW,2013-07-09 05:15:00,
2013-07-08 22:20:00,70.7,55.7,29.71,WNW,293,0.0,0.0,59,0.00,,,0.01,WUHU216HW,2013-07-09 05:20:00,
2013-07-08 22:25:00,70.6,55.6,29.71,WNW,293,0.0,0.0,59,0.00,,,0.01,WUHU216HW,2013-07-09 05:25:00,
2013-07-08 22:30:00,70.2,55.3,29.71,WNW,293,0.0,0.0,59,0.00,,,0.01,WUHU216HW,2013-07-09 05:30:00,
2013-07-08 22:35:00,70.0,55.6,29.71,WNW,293,0.0,0.0,60,0.00,,,0.01,WUHU216HW,2013-07-09 05:35:00,
2013-07-08 22:40:00,69.8,55.4,29.71,WNW,293,0.0,0.0,60,0.00,,,0.01,WUHU216HW,2013-07-09 05:40:00,
2013-07-08 22:45:00,69.7,55.7,29.71,WNW,293,0.0,0.0,61,0.00,,,0.01,WUHU216HW,2013-07-09 05:45:00,
2013-07-08 22:50:00,69.3,55.4,29.71,WNW,293,0.0,0.0,61,0.00,,,0.01,WUHU216HW,2013-07-09 05:50:00,
2013-07-08 22:55:00,69.1,55.2,29.72,WNW,293,0.0,0.0,61,0.00,,,0.01,WUHU216HW,2013-07-09 05:55:00,
2013-07-08 23:00:00,68.8,55.2,29.72,WNW,293,0.0,0.0,62,0.00,,,0.01,WUHU216HW,2013-07-09 06:00:00,
2013-07-08 23:05:00,68.8,55.2,29.72,WNW,293,0.0,0.0,62,0.00,,,0.01,WUHU216HW,2013-07-09 06:05:00,
2013-07-08 23:10:00,68.6,55.4,29.72,WNW,293,0.0,0.0,63,0.00,,,0.01,WUHU216HW,2013-07-09 06:10:00,
2013-07-08 23:15:00,68.4,55.3,29.72,WNW,293,0.0,0.0,63,0.00,,,0.01,WUHU216HW,2013-07-09 06:15:00,
2013-07-08 23:20:00,68.0,54.9,29.72,WNW,293,0.0,0.0,63,0.00,,,0.01,WUHU216HW,2013-07-09 06:20:00,
2013-07-08 23:25:00,68.0,55.4,29.72,WNW,293,0.0,0.0,64,0.00,,,0.01,WUHU216HW,2013-07-09 06:25:00,
2013-07-08 23:30:00,67.9,55.2,29.72,WNW,293,0.0,0.0,64,0.00,,,0.01,WUHU216HW,2013-07-09 06:30:00,
2013-07-08 23:35:00,67.7,55.0,29.72,WNW,293,0.0,0.0,64,0.00,,,0.01,WUHU216HW,2013-07-09 06:35:00,
2013-07-08 23:40:00,67.5,55.3,29.72,WNW,293,0.0,0.0,65,0.00,,,0.01,WUHU216HW,2013-07-09 06:40:00,
2013-07-08 23:45:00,67.5,55.3,29.72,WNW,293,0.0,0.0,65,0.00,,,0.01,WUHU216HW,2013-07-09 06:45:00,
2013-07-08 23:50:00,67.3,55.1,29.72,WNW,293,0.0,0.0,65,0.00,,,0.01,WUHU216HW,2013-07-09 06:50:00,
2013-07-08 23:55:00,67.1,54.9,29.72,WNW,293,0.0,0.0,65,0.00,,,0.01,WUHU216HW,2013-07-09 06:55:00,